Weather Service Report


495 
ASUS45 KPSR 250610
RWRAZ 

ARIZONA HOURLY REGIONAL WEATHER ROUNDUP
NATIONAL WEATHER SERVICE PHOENIX AZ
1100 PM MST FRI JUN 24 2016

NOTE: FAIR INDICATES FEW OR NO CLOUDS BELOW 12,000 FEET WITH NO
SIGNIFICANT WEATHER AND/OR OBSTRUCTIONS TO VISIBILITY.

AZZ001>003-036-250700-
NORTHWEST ARIZONA
  
CITY           SKY/WX    TMP DP  RH WIND       PRES   REMARKS
BULLHEAD CITY  CLEAR     97  41  14 CALM      29.69S                  
KINGMAN        CLEAR     82  35  18 S12       29.94S                  
6HR MIN TEMP:  82; 6HR MAX TEMP:  99;                                

$$

AZZ004>008-015-016-018-250700-
NORTH CENTRAL ARIZONA
  
CITY           SKY/WX    TMP DP  RH WIND       PRES   REMARKS
GRAND CANYON   CLEAR     56  21  25 CALM      30.21R                  
6HR MIN TEMP:  56; 6HR MAX TEMP:  90;                                

WILLIAMS       CLEAR     72  32  23 SW10      30.29S                  
PRESCOTT       CLEAR     74  36  25 S8        30.10R                  
6HR MIN TEMP:  74; 6HR MAX TEMP:  92;                                

FLAGSTAFF      CLEAR     61  34  36 CALM      30.26R                  
6HR MIN TEMP:  61; 6HR MAX TEMP:  82;                                

PAYSON         CLEAR     75  34  22 CALM      30.13S                  
PAGE           CLEAR     89  25  10 VRB3      29.93R                  
6HR MIN TEMP:  89; 6HR MAX TEMP: 102;                                

$$

AZZ009>014-017-250700-
NORTHEAST ARIZONA
  
CITY           SKY/WX    TMP DP  RH WIND       PRES   REMARKS
WINSLOW        CLEAR     78  33  19 SW15      30.05S                  
6HR MIN TEMP:  78; 6HR MAX TEMP:  97;                                

SAINT JOHNS    CLOUDY    74  41  30 S7        30.14R                  
6HR MIN TEMP:  74; 6HR MAX TEMP:  91;                                

WINDOW ROCK    CLOUDY    72  44  36 S7        30.21R                  
6HR MIN TEMP:  69; 6HR MAX TEMP:  84;                                

SHOW LOW       MOCLDY    68  32  26 S10       30.22S                  
$$

AZZ023-250700-
GREATER PHOENIX AREA
  
CITY           SKY/WX    TMP DP  RH WIND       PRES   REMARKS
PHOENIX        CLEAR     97  44  16 W7        29.76R                  
6HR MIN TEMP:  97; 6HR MAX TEMP: 109;                                

BUCKEYE        CLEAR     86  48  26 SW5       29.78R                  
LUKE AFB       CLEAR     94  49  21 SW12      29.75R                  
6HR MIN TEMP:  94; 6HR MAX TEMP: 108;                                

DEER VALLEY    CLEAR     94  44  17 SW7       29.78R                  
6HR MIN TEMP:  94; 6HR MAX TEMP: 106;                                

SCOTTSDALE     CLEAR     96  44  16 SW3       29.81R                  
6HR MIN TEMP:  96; 6HR MAX TEMP: 107;                                

MESA-GATEWAY   CLEAR     93  50  22 S8        29.80R                  
$$

AZZ027-028-250700-
SOUTHWEST MARICOPA COUNTY AND PINAL COUNTY
  
CITY           SKY/WX    TMP DP  RH WIND       PRES   REMARKS
CASA GRANDE    CLEAR     93  43  17 W7        29.82S                  
GILA BEND      FAIR      92  47  20 SW12      29.76R                  
6HR MIN TEMP:  92; 6HR MAX TEMP: 110;                                

$$

AZZ503-504-507>509-250700-
SOUTHEAST ARIZONA
  
CITY           SKY/WX    TMP DP  RH WIND       PRES   REMARKS
TUCSON         PTCLDY    86  54  33 SE10      29.97R                  
6HR MIN TEMP:  86; 6HR MAX TEMP:  97;                                

DAVIS-MONTHAN  CLEAR     83  54  35 SE8       29.96R                  
6HR MIN TEMP:  83; 6HR MAX TEMP:  93;                                

NOGALES        CLOUDY    74  54  49 SE6       30.07S                  
6HR MIN TEMP:  73; 6HR MAX TEMP:  80; 6HR PCP:  0.01;                

SIERRA VISTA   CLOUDY    72  54  52 SW6       30.13S                  
6HR MIN TEMP:  72; 6HR MAX TEMP:  80; 6HR PCP: TRACE;                

DOUGLAS        CLOUDY    73  53  49 SE9       30.09F                  
6HR MIN TEMP:  73; 6HR MAX TEMP:  76; 6HR PCP:  0.01;                

SAFFORD        CLOUDY    88  50  27 E10       29.96S                  
6HR MIN TEMP:  88; 6HR MAX TEMP:  95;                                

$$

AZZ020-021-025-026-031-250700-
SOUTHWEST ARIZONA
  
CITY           SKY/WX    TMP DP  RH WIND       PRES   REMARKS
YUMA           CLEAR     88  48  25 SE15      29.72R                  
6HR MIN TEMP:  88; 6HR MAX TEMP: 108;                                

$$

CAZ031-033-041-043-047-048-061-250700-
SOUTHERN CALIFORNIA
  
CITY           SKY/WX    TMP DP  RH WIND       PRES   REMARKS
DOWNTOWN L.A.  MOCLDY    66  60  81 CALM      29.89S                  
6HR MIN TEMP:  66; 6HR MAX TEMP:  74;                                

L.A. AIRPORT   MOCLDY    66  60  81 CALM      29.90R                  
6HR MIN TEMP:  65; 6HR MAX TEMP:  70;                                

SAN DIEGO      CLOUDY    65  58  78 S7        29.92S                  
6HR MIN TEMP:  65; 6HR MAX TEMP:  67;                                

BURBANK        CLEAR     67  59  75 VRB6      29.89S                  
6HR MIN TEMP:  67; 6HR MAX TEMP:  78;                                

ONTARIO        CLEAR     68  57  68 S7        29.90R                  
6HR MIN TEMP:  68; 6HR MAX TEMP:  84;                                

RIVERSIDE      CLEAR     69  57  65 CALM      29.90R                  
6HR MIN TEMP:  69; 6HR MAX TEMP:  85;                                

PALM SPRINGS   CLEAR     91  51  25 NW13      29.71R                  
6HR MIN TEMP:  91; 6HR MAX TEMP: 109;                                

EL CENTRO NAS  CLEAR     88  35  15 S8        29.71R                  
6HR MIN TEMP:  88; 6HR MAX TEMP: 112;                                

IMPERIAL       CLEAR     91  35  13 CALM      29.69R                  
6HR MIN TEMP:  88; 6HR MAX TEMP: 112;                                

BLYTHE         CLEAR     95  50  21 S16       29.71R                  
6HR MIN TEMP:  95; 6HR MAX TEMP: 111;                                

NEEDLES        CLEAR    101  38  11 SW12      29.70S                  
6HR MIN TEMP: 101; 6HR MAX TEMP: 111;                                

$$

NVZ020-UTZ003-250700-
SOUTHERN NEVADA-UTAH
  
CITY           SKY/WX    TMP DP  RH WIND       PRES   REMARKS
LAS VEGAS      CLEAR     93  17   6 S6        29.76R                  
6HR MIN TEMP:  93; 6HR MAX TEMP: 107;                                

SALT LAKE CITY CLEAR     70  44  39 N15       30.08R                  
6HR MIN TEMP:  70; 6HR MAX TEMP:  89;                                

$$

NMZ009-TXZ055-250700-
NEW MEXICO-WEST TEXAS
  
CITY           SKY/WX    TMP DP  RH WIND       PRES   REMARKS
ALBUQUERQUE    CLOUDY    76  47  35 S9        30.11S                  
6HR MIN TEMP:  76; 6HR MAX TEMP:  87;                                

EL PASO        CLOUDY    78  57  48 W12       30.08R                  
6HR MIN TEMP:  78; 6HR MAX TEMP:  98; 6HR PCP: TRACE;                

$$


........................KEY........................
SKY/WX - SKY CONDITION/WEATHER
TMP    - TEMPERATURE IN FAHRENHEIT
DP     - DEW POINT IN FAHRENHEIT
RH     - RELATIVE HUMIDITY IN PERCENT
WIND   - DIRECTION AND SPEED IN MILES PER HOUR (MPH)
VRB    - VARIABLE WIND DIRECTION
PRES   - MEAN SEA LEVEL PRESSURE IN INCHES OF MERCURY
         F - FALLING PRESSURE   R - RISING PRESSURE
         S - STEADY PRESSURE
VSB    - VISIBILITY IN MILES
HX     - HEAT INDEX IN FAHRENHEIT
WCI    - WIND CHILL INDEX IN FAHRENHEIT
TC     - TEMPERATURE IN CELSIUS WHICH IS ALSO KNOWN AS
         TEMPERATURE IN CENTIGRADE
AFB    - AIR FORCE BASE
         LUKE AFB IS LUKE AIR FORCE BASE
         DAVIS-MONTHAN IS DAVIS-MONTHAN AIR FORCE BASE
NAS    - NAVAL AIR STATION
         EL CENTRO NAS IS EL CENTRO NAVAL AIR STATION
N/A    - NOT AVAILABLE

  

Return to Home page


Western Regional Climate Center, wrcc@dri.edu